Theta_e
360 359 358 357 355 356 356 355 355 354 352 352 352 352 351 350 350 349 350 350 349 349 349 349 350 349 349 351 351 351 352 352 353 353 352 354 356 355 353 351 349 348
361 360 359 358 356 355 356 355 355 354 353 351 352 351 352 351 350 350 350 349 348 349 348 348 349 349 349 351 353 353 354 354 355 355 354 354 355 355 354 353 351 351
361 361 360 358 357 355 355 355 354 353 352 351 351 351 351 351 350 350 349 350 349 347 347 348 348 349 350 352 353 354 353 354 355 356 355 354 354 355 355 354 353 352
361 361 361 358 356 355 354 354 353 353 353 352 351 351 351 350 351 350 350 349 348 347 346 347 349 349 349 351 354 355 352 353 355 355 355 354 353 354 355 355 354 352
363 361 361 359 356 355 355 353 353 353 352 352 352 351 351 350 350 350 350 349 349 348 347 347 348 349 351 352 355 355 353 354 356 356 355 354 354 353 353 354 353 353
363 361 361 360 357 356 356 355 354 353 352 351 351 351 350 350 349 349 349 349 348 348 347 345 347 348 350 352 354 353 352 352 355 355 354 353 354 355 353 353 353 352
364 361 360 360 357 356 356 354 353 352 352 352 351 351 350 349 349 349 348 348 348 348 348 346 346 347 349 350 351 351 349 349 351 352 353 354 355 355 354 352 351 352
363 361 361 359 357 356 355 354 352 353 351 351 351 351 352 350 350 350 350 350 350 349 348 347 345 345 347 349 349 349 349 349 349 350 351 353 353 353 353 353 352 352
361 361 360 358 356 354 355 354 354 352 351 353 353 353 352 351 352 352 352 352 351 349 349 349 348 346 346 347 348 348 350 350 350 349 351 352 351 351 352 353 353 354
357 359 358 357 355 354 355 356 355 353 353 356 357 355 356 355 354 352 351 351 352 352 351 352 351 350 348 348 348 348 349 350 352 351 351 351 351 350 350 351 352 354
354 355 355 356 355 354 355 356 355 354 354 354 355 356 355 354 353 352 350 350 351 353 354 353 353 352 351 350 349 349 350 350 351 352 352 352 352 350 349 351 352 354
353 353 353 353 354 355 357 358 356 356 355 354 354 355 356 356 355 353 352 351 351 352 354 353 352 353 352 351 351 351 352 352 351 352 353 353 352 351 350 350 349 351
353 352 350 350 351 353 356 358 356 354 355 355 357 358 358 358 357 356 354 354 354 353 354 353 353 352 351 351 352 352 353 353 351 351 351 352 352 351 351 349 347 347
352 352 352 352 351 352 354 357 356 355 355 357 358 357 355 355 356 356 355 355 355 354 353 353 353 353 352 353 354 353 353 353 352 350 350 350 350 350 349 348 347 347
352 353 354 354 354 355 356 357 356 356 357 357 356 353 354 356 357 357 356 356 356 355 354 353 353 353 352 353 354 354 353 353 352 351 350 349 349 348 348 347 348 347
354 354 354 355 356 356 356 355 356 356 356 355 353 353 356 358 357 358 358 356 356 355 355 355 354 354 353 353 354 354 354 353 352 350 349 350 349 349 349 348 348 347
355 353 354 355 356 355 353 354 355 356 356 355 355 355 356 357 357 357 358 356 356 356 355 354 354 353 354 354 354 353 352 352 353 352 352 351 350 350 349 348 349 350
353 353 355 355 355 353 352 354 355 356 357 356 356 357 357 357 356 357 357 357 356 356 355 354 354 353 353 353 353 352 352 351 352 353 353 352 353 353 350 349 349 350
353 354 356 356 356 354 353 353 355 357 357 356 356 357 358 357 356 356 356 355 355 354 353 353 353 353 352 353 353 352 351 351 351 351 351 351 353 354 351 349 350 351
355 357 357 358 358 356 355 356 356 357 357 357 357 357 357 357 357 356 356 355 354 353 353 352 352 352 352 353 353 353 352 352 351 351 351 351 351 352 351 351 350 350
357 357 357 358 357 357 356 357 356 357 357 357 357 357 356 357 356 356 356 355 354 354 353 352 351 352 352 352 352 352 351 352 351 351 351 351 351 351 350 351 351 350
357 358 357 358 357 357 357 357 357 357 357 357 357 357 356 355 355 356 355 354 354 353 353 352 352 353 352 352 352 352 352 352 352 351 351 352 352 351 350 350 351 351
356 356 357 357 357 357 357 357 357 357 357 356 355 355 356 355 354 355 354 354 354 353 353 353 353 353 353 352 354 353 351 351 351 352 352 352 352 352 352 352 352 352
355 356 357 356 356 357 357 357 357 357 356 355 354 354 356 356 356 355 354 354 354 354 354 354 353 353 353 353 353 351 350 350 350 351 351 351 351 351 351 351 351 351
356 357 356 357 356 356 356 357 356 356 356 355 355 356 355 356 354 353 352 353 353 353 354 353 353 352 352 352 351 349 349 347 348 351 351 350 350 349 349 350 350 348
357 357 357 357 357 356 355 356 356 355 355 355 356 355 354 353 352 351 350 351 352 353 352 351 352 352 351 350 349 347 346 344 345 349 350 349 349 348 347 348 349 347
Wind_Speed
18 19 18 17 16 15 14 15 14 15 16 16 16 17 17 16 15 15 15 16 18 19 19 19 18 17 17 16 15 15 13 12 12 12 14 14 13 13 14 15 15 15
20 19 19 18 18 17 16 16 15 15 16 17 16 16 17 17 15 15 15 14 17 18 19 19 19 18 17 16 16 15 14 14 13 13 13 13 12 13 14 14 14 15
20 20 20 18 18 18 17 17 17 16 15 16 16 15 16 17 16 16 16 15 15 16 18 19 18 18 18 18 17 16 15 15 15 14 14 13 12 14 14 14 14 15
20 19 19 18 17 17 16 16 17 17 16 17 17 16 15 15 14 14 15 16 16 16 16 16 17 17 18 19 18 17 16 16 16 16 16 15 14 15 14 13 14 16
21 19 18 17 17 16 16 16 17 17 17 17 16 15 15 14 14 15 15 16 17 17 16 14 15 16 17 18 18 17 16 16 16 17 17 17 16 15 15 14 16 17
21 21 19 18 18 18 17 17 17 16 16 16 16 16 15 15 16 16 15 15 16 17 17 15 15 15 16 18 19 19 17 16 16 17 19 19 18 16 15 15 16 17
23 22 21 18 18 18 18 18 17 16 16 17 17 16 15 15 16 17 16 15 15 15 15 16 15 16 17 18 19 20 20 19 17 17 18 18 18 17 17 17 16 17
23 21 21 19 18 18 19 19 17 15 16 17 17 17 16 15 15 15 15 15 14 13 13 13 14 16 17 17 18 19 19 18 17 17 19 19 18 18 19 19 18 18
22 20 19 19 18 17 17 17 16 15 14 14 15 15 15 14 13 13 14 15 14 13 13 13 12 13 15 16 18 18 17 17 18 18 18 18 18 19 19 19 19 19
19 18 18 17 17 15 15 15 15 15 13 11 11 11 11 11 11 11 12 13 13 14 14 14 13 13 13 14 16 17 17 17 17 17 18 17 17 19 20 21 21 21
18 18 16 13 12 13 14 15 14 14 14 13 11 10 8 9 12 13 13 13 13 13 14 15 15 14 14 14 14 15 16 17 17 16 16 16 16 17 18 18 19 21
15 14 10 7 9 9 9 11 11 10 11 11 11 9 8 9 10 12 13 13 13 13 14 15 15 15 16 16 15 13 12 15 17 15 13 15 17 19 18 16 16 18
7 9 9 10 13 12 8 9 10 8 6 6 7 8 9 10 11 11 12 12 12 13 14 14 15 16 17 17 18 18 16 15 15 14 14 15 17 20 22 21 19 19
8 10 12 12 15 15 13 12 11 9 6 5 6 8 9 11 12 13 14 14 13 13 14 13 14 15 16 17 18 19 20 19 18 18 18 19 18 20 23 23 22 21
9 10 13 12 14 15 13 11 9 8 7 7 8 8 8 9 11 11 11 12 12 12 12 11 12 14 16 17 17 18 20 21 23 22 21 21 20 20 22 22 22 21
7 9 12 12 13 12 10 10 9 9 9 8 8 9 10 10 11 10 9 9 9 9 10 10 12 14 14 15 16 17 17 17 19 20 21 22 21 22 22 21 22 22
8 10 12 12 10 9 8 9 8 8 8 8 8 10 11 11 11 10 9 9 9 9 10 11 12 13 13 14 16 17 15 13 14 15 17 19 20 22 22 21 21 17
11 12 11 10 9 9 9 9 8 8 8 9 9 10 11 10 10 9 8 8 7 7 9 10 13 14 14 13 13 14 13 12 12 11 13 15 15 16 17 17 16 12
13 12 10 9 10 10 10 10 9 8 9 10 9 10 9 8 7 7 6 6 6 7 8 9 11 14 13 11 10 11 11 12 11 10 11 13 12 12 12 13 14 15
10 10 9 9 9 10 10 10 9 9 9 9 9 8 8 7 7 6 6 6 7 9 11 11 11 11 12 11 11 12 12 11 11 11 11 12 12 11 10 11 15 19
8 8 9 9 9 9 9 9 9 8 7 8 7 6 7 7 7 6 6 7 9 10 11 11 10 10 12 12 11 12 11 10 10 10 11 12 12 13 14 16 16 18
8 8 9 9 9 8 8 9 8 7 7 8 7 6 6 6 6 6 6 7 9 10 10 10 9 10 11 10 9 9 9 8 8 8 8 9 10 13 16 18 17 15
7 7 7 7 7 7 7 8 8 7 7 8 7 6 6 5 5 5 5 7 8 9 9 9 9 10 10 8 7 6 7 8 9 9 8 8 10 12 14 16 16 13
7 6 6 6 6 6 6 6 6 6 6 6 6 6 5 5 5 5 5 6 8 8 8 8 8 8 8 6 5 5 5 7 8 8 9 9 9 11 13 15 14 13
7 6 5 5 5 4 4 4 4 4 4 4 5 5 4 4 4 5 5 5 6 5 5 6 6 6 5 3 3 4 5 6 5 5 6 7 7 9 11 12 13 11
7 5 4 3 3 2 2 2 3 2 3 3 4 4 4 3 3 3 3 5 5 4 4 4 3 3 2 1 3 4 6 6 4 3 4 4 5 7 9 9 10 9
Wind_Direction
195 194 197 200 201 203 204 205 208 212 216 214 210 214 221 227 224 217 212 208 213 219 222 224 227 231 236 237 237 240 245 246 241 237 229 226 232 238 244 248 248 255
193 193 194 197 200 203 206 208 211 215 218 221 219 213 214 223 226 225 223 216 215 220 221 221 223 228 232 234 234 236 241 242 243 247 238 227 231 241 248 254 254 256
194 193 193 197 200 203 206 207 212 218 220 222 225 220 215 220 222 222 226 227 227 229 226 218 219 227 229 228 230 231 235 240 240 245 248 242 239 243 249 256 258 260
196 195 194 198 201 203 206 209 212 216 220 222 224 222 216 216 220 221 226 232 232 237 237 224 216 224 227 225 227 228 231 237 239 241 246 248 247 246 247 252 257 262
197 197 195 198 201 200 205 213 215 214 217 223 224 222 217 213 217 223 225 228 229 232 240 235 220 220 224 223 224 227 230 234 237 239 242 246 247 246 245 248 255 263
196 196 197 200 201 201 205 211 215 212 215 223 225 224 220 215 219 224 222 223 228 230 233 234 226 221 223 223 222 225 230 233 237 239 241 242 243 244 245 247 252 258
195 196 199 202 203 204 205 207 212 214 215 221 225 224 222 219 222 227 227 226 226 227 230 234 231 223 222 225 223 223 227 232 237 240 239 237 239 242 244 248 253 255
197 198 199 202 207 208 208 210 213 215 218 223 225 224 222 222 224 226 227 227 226 226 231 240 241 232 226 227 229 228 227 232 237 239 238 237 239 242 244 248 255 258
197 199 200 203 207 207 211 214 214 216 218 219 219 219 221 223 226 228 228 229 233 236 239 248 254 248 239 235 235 236 234 236 239 240 241 239 239 243 245 248 253 258
196 198 199 202 207 211 214 214 213 217 216 207 204 207 210 217 228 242 249 245 240 239 242 247 253 254 253 247 242 242 242 240 240 243 248 248 245 247 246 245 247 251
194 200 199 196 201 211 220 218 214 216 214 210 213 214 214 226 234 242 253 253 246 243 244 247 251 255 256 256 254 252 246 241 241 245 253 257 256 257 257 253 253 253
191 195 199 204 208 215 223 221 218 214 208 209 215 218 221 236 240 237 239 242 242 247 248 247 249 251 253 257 258 259 257 252 248 248 256 259 254 254 257 259 264 269
172 152 158 190 211 223 226 218 218 214 202 195 197 204 217 230 238 241 242 239 239 246 250 249 248 248 250 252 250 252 259 261 255 250 253 257 255 254 253 252 255 265
168 142 135 157 187 207 218 220 221 217 209 209 209 216 232 238 238 242 244 242 238 241 247 250 249 247 245 246 248 251 255 259 262 259 258 261 264 262 259 258 260 259
168 147 127 140 169 184 194 198 193 185 189 207 221 226 232 234 237 241 243 243 240 242 249 251 250 250 248 248 252 257 258 261 264 264 263 265 268 267 264 263 267 266
171 157 142 152 173 180 176 170 170 178 187 200 219 227 225 226 232 237 241 247 248 251 256 258 259 262 261 259 259 262 265 268 270 270 267 264 266 268 268 267 268 270
180 175 159 159 177 187 173 164 178 193 197 204 219 229 232 234 236 236 241 249 253 258 265 268 269 266 262 262 263 265 268 272 277 279 274 270 271 270 269 275 280 279
177 172 163 161 177 187 174 171 189 204 211 217 225 231 234 238 239 237 244 253 259 270 278 281 281 276 269 266 265 262 262 267 271 274 274 275 278 276 276 285 291 289
169 164 162 165 174 181 179 182 194 205 213 216 221 228 232 237 240 238 246 258 263 269 270 269 278 286 287 285 279 273 272 275 273 271 273 273 272 277 284 285 277 273
161 160 164 165 168 176 181 187 194 203 214 215 216 224 229 233 237 234 235 244 248 253 256 255 258 271 278 278 280 282 284 286 281 272 269 271 274 276 275 268 264 270
160 161 163 163 168 177 184 194 200 203 210 214 215 224 230 231 232 231 236 245 248 249 252 254 253 260 270 273 274 277 278 282 287 280 269 267 273 274 271 267 268 274
161 159 162 165 171 181 191 200 203 202 208 213 215 221 231 232 227 224 235 248 254 252 250 254 263 274 280 280 280 281 279 282 289 288 278 273 273 273 273 274 274 275
161 164 168 170 174 186 199 204 205 205 213 219 216 216 226 230 225 225 233 244 252 256 257 260 270 278 281 287 297 297 294 295 294 288 279 275 275 275 277 280 282 283
156 167 172 172 182 193 197 203 207 208 216 222 216 217 226 226 225 231 236 244 253 264 272 275 280 283 282 286 296 298 305 312 307 294 281 275 276 279 280 282 288 294
151 162 165 171 187 190 187 199 211 214 221 222 219 229 240 232 234 246 260 273 275 274 280 284 284 284 283 283 288 300 316 318 310 299 289 281 283 286 282 282 288 292
145 153 153 164 175 165 168 188 200 217 239 241 242 259 267 252 234 228 246 284 295 296 303 298 273 248 247 295 306 312 318 315 316 332 322 313 314 307 295 288 283 278